This is the latest recevied weather packets stored in our database for station/object JH7UAX-10. If no packets are shown the sender has not sent any weather packets the latest 10 day(s).
| Time | Temp. | Humidity | Pressure | Rain* | Wind** | Luminosity | Snow |
|---|---|---|---|---|---|---|---|
| 1777522507 | 16.67° C | 42% | 1032.6 hPa | 0 mm | - | - | - |
| 1777522078 | 16.67° C | 46% | 1032.7 hPa | 0 mm | - | - | - |
| 1777521178 | 16.67° C | 38% | 1032.5 hPa | 0 mm | - | - | - |
| 1777520706 | 16.67° C | 36% | 1032.6 hPa | 0 mm | - | - | - |
| 1777520280 | 17.22° C | 33% | 1032.5 hPa | 0 mm | - | - | - |
| 1777519806 | 17.22° C | 31% | 1032.6 hPa | 0 mm | - | - | - |
| 1777519380 | 17.22° C | 33% | 1032.6 hPa | 0 mm | - | - | - |
| 1777518905 | 17.22° C | 28% | 1032.7 hPa | 0 mm | - | - | - |
| 1777518480 | 17.78° C | 36% | 1032.8 hPa | 0 mm | - | - | - |
| 1777518005 | 17.22° C | 37% | 1032.8 hPa | 0 mm | - | - | - |
| 1777517579 | 16.67° C | 37% | 1033 hPa | 0 mm | - | - | - |
| 1777517105 | 17.22° C | 39% | 1033 hPa | 0 mm | - | - | - |
| 1777516679 | 17.22° C | 38% | 1033 hPa | 0 mm | - | - | - |
| 1777516207 | 17.22° C | 40% | 1033.2 hPa | 0 mm | - | - | - |
| 1777515779 | 17.22° C | 41% | 1033.2 hPa | 0 mm | - | - | - |
| 1777515306 | 17.22° C | 39% | 1033.2 hPa | 0 mm | - | - | - |
| 1777514878 | 17.22° C | 38% | 1033.3 hPa | 0 mm | - | - | - |
| 1777514406 | 17.22° C | 38% | 1033.3 hPa | 0 mm | - | - | - |
| 1777513978 | 17.22° C | 39% | 1033.3 hPa | 0 mm | - | - | - |
| 1777513506 | 17.22° C | 37% | 1033.5 hPa | 0 mm | - | - | - |
| 1777513080 | 16.67° C | 40% | 1033.5 hPa | 0 mm | - | - | - |
| 1777512607 | 16.67° C | 43% | 1033.6 hPa | 0 mm | - | - | - |
| 1777512180 | 16.11° C | 44% | 1033.5 hPa | 0 mm | - | - | - |
| 1777511705 | 16.67° C | 42% | 1033.7 hPa | 0 mm | - | - | - |
| 1777511279 | 16.67° C | 43% | 1033.7 hPa | 0 mm | - | - | - |
* Rain latest hour (hover to see other rain measurements)
** Current wind speed in m/s (hover to see current wind gust speed)